[[{"header":{"parameterUnit":"m.s-1","parameterCategory":1,"la1":30.2991,"la2":30.254,"lo1":-89.0895,"lo2":-89.0444,"dy":0.0017,"dx":0.0017,"nx":28,"ny":28,"refTime":"2023-05-26T21:00:00:Z","depth":0,"parameterNumber":2,"parameterNumberName":"U-component_of_WINDS"},"data":[0,0,0,0,0,0,0,0,0,0,0,0,0,0,0,0,0,0,0,0,0,0,0,0,0,0,0,0,0,0,0,0,0,0,0,0,0,0,0,0,0,0,0,0,0,0,0,0,0,0,0,0,0,0,0,0,0,0,-0.5008,-0.5008,0,-0.4995,-0.4995,-0.4995,-0.5086,-0.5089,-0.5091,-0.5094,-0.5078,-0.5076,-0.5073,0,0,0,0,0,0,0,0,0,0,0,0,0,-0.511,-0.5107,-0.5008,-0.5008,-0.5008,-0.4995,-0.4995,-0.4995,-0.5086,-0.5089,-0.5092,-0.5095,-0.5079,-0.5076,-0.5073,0,0,0,0,0,0,0,0,0,0,0,0,0,-0.5078,-0.5107,-0.5008,-0.5052,-0.5055,-0.4995,-0.4995,-0.4995,-0.5085,-0.5089,-0.5093,-0.5096,-0.508,-0.5076,-0.5072,-0.4969,0,0,-0.5059,-0.5057,0,0,0,0,0,0,0,0,-0.508,-0.5074,-0.5045,-0.5049,-0.5053,-0.5046,-0.5025,-0.4986,-0.5084,-0.5074,-0.5094,-0.5098,-0.5064,-0.5062,-0.5051,-0.4968,-0.4967,-0.5059,-0.5056,-0.5054,-0.5053,0,0,0,0,0,0,0,-0.5082,-0.5075,-0.5003,-0.5045,-0.5049,-0.5071,-0.5071,-0.5018,-0.5047,-0.5075,-0.5082,-0.5079,-0.5067,-0.5055,-0.5051,-0.4967,-0.5059,-0.5055,-0.5053,-0.5051,-0.48,-0.4796,0,0,0,0,0,0,-0.5078,-0.5076,-0.5003,-0.5003,-0.5076,-0.5066,-0.5066,-0.5044,-0.5048,-0.5053,-0.5076,-0.5083,-0.506,-0.5056,-0.5051,-0.4931,-0.5054,-0.5051,-0.5048,-0.4804,-0.4799,-0.4794,0,0,0,0,0,0,-0.508,-0.5071,-0.5004,-0.5041,-0.5035,-0.5061,-0.5035,-0.5042,-0.503,-0.5049,-0.5054,-0.5058,-0.5063,-0.5057,-0.4989,-0.4931,-0.5049,-0.5045,-0.4809,-0.4802,-0.4797,-0.4688,0,0,0,0,0,0,-0.5083,-0.5071,-0.5032,-0.504,-0.5032,-0.4942,-0.5032,-0.5039,-0.5023,-0.5032,-0.5033,-0.5037,-0.5065,-0.4995,-0.4985,-0.4928,-0.5041,-0.4814,-0.4806,-0.4799,-0.4697,-0.4679,-0.4664,0,0,0,0,0,-0.5086,-0.5002,-0.503,-0.5021,-0.4984,-0.4939,-0.4934,-0.4969,-0.5018,-0.4979,-0.4991,-0.5037,-0.4939,-0.4987,-0.4976,-0.4917,-0.4818,-0.4808,-0.4799,-0.4705,-0.4683,-0.4664,0,0,0,0,0,0,-0.4986,-0.5004,-0.5035,-0.4951,-0.4943,-0.4954,-0.4906,-0.4945,-0.4922,-0.4932,-0.4975,-0.4975,-0.4899,-0.4902,-0.4954,-0.4818,-0.4887,-0.4875,-0.4819,-0.4798,-0.4782,-0.4783,-0.5038,0,0,0,0,0,-0.4954,-0.4916,-0.4934,-0.4858,-0.4852,-0.4879,-0.4861,-0.4889,-0.4881,-0.4878,-0.4886,-0.4876,-0.4844,-0.4821,-0.4792,-0.4698,-0.47,-0.4653,-0.4636,-0.4622,-0.4611,-0.4562,-0.4541,-0.4764,-0.4764,-0.4764,0,0,-0.4888,-0.4893,-0.4866,-0.4838,-0.4835,-0.4794,-0.4876,-0.4829,-0.4799,-0.4871,-0.4807,-0.4812,-0.4805,-0.4724,-0.4688,-0.4723,-0.455,-0.461,-0.4599,-0.4596,-0.455,-0.4529,-0.451,-0.4757,-0.4759,-0.476,0,0,-0.4747,-0.4747,-0.4684,-0.4679,-0.4674,-0.4693,-0.4678,-0.4683,-0.469,-0.4627,-0.468,-0.4645,-0.4587,-0.458,-0.4569,-0.4425,-0.4467,-0.4415,-0.4327,-0.4279,-0.4261,-0.4246,-0.4195,-0.4176,-0.4404,-0.4404,-0.4403,0,-0.4665,-0.4607,-0.4646,-0.4596,-0.4582,-0.4646,-0.4582,-0.4576,-0.456,-0.4549,-0.4589,-0.4519,-0.4518,-0.4436,-0.4401,-0.439,-0.4374,-0.4415,-0.4261,-0.4246,-0.4232,-0.4184,-0.4164,-0.4397,-0.4398,-0.4399,-0.4399,0,-0.4506,-0.4465,-0.4414,-0.4399,-0.4379,-0.4322,-0.4353,-0.4328,-0.4357,-0.4372,-0.4307,-0.4309,-0.4282,-0.4264,-0.4292,-0.4186,-0.4208,-0.4253,-0.4324,-0.4204,-0.4159,-0.4141,-0.4388,-0.4391,-0.4392,-0.4394,0,0,-0.4301,-0.4309,-0.429,-0.4284,-0.4283,-0.4251,-0.4197,-0.4171,-0.4149,-0.4136,-0.4092,-0.4043,-0.4085,-0.4072,-0.41,-0.4057,-0.3943,-0.4108,-0.4109,-0.4077,-0.3827,-0.3792,-0.377,-0.3971,-0.3968,-0.3965,-0.3827,0,-0.4163,-0.4072,-0.4107,-0.4013,-0.3975,-0.4035,-0.3988,-0.3982,-0.3994,-0.3963,-0.3977,-0.3941,-0.4,-0.3992,-0.3953,-0.3965,-0.3893,-0.3976,-0.393,-0.3928,-0.393,-0.3747,-0.371,-0.358,-0.381,-0.3807,-0.3805,0,-0.399,-0.3972,-0.3874,-0.388,-0.3865,-0.3822,-0.3801,-0.3771,-0.3766,-0.3778,-0.3763,-0.3801,-0.3748,-0.3818,-0.3746,-0.3801,-0.3785,-0.3788,-0.3784,-0.3781,-0.3859,-0.3738,-0.3539,-0.352,-0.3778,-0.378,-0.3782,0,-0.3851,-0.3801,-0.3736,-0.3729,-0.3734,-0.3703,-0.3703,-0.3702,-0.3684,-0.3666,-0.3655,-0.363,-0.3616,-0.3596,-0.3625,-0.3674,-0.3549,-0.3622,-0.3557,-0.3556,-0.3528,-0.3529,-0.3323,-0.3517,-0.3517,-0.3517,-0.3518,0,-0.3693,-0.3631,-0.3674,-0.3634,-0.3566,-0.3606,-0.3537,-0.3545,-0.3543,-0.3505,-0.3556,-0.3519,-0.356,-0.3527,-0.355,-0.3487,-0.348,-0.3488,-0.3495,-0.3484,-0.3483,-0.3473,-0.3483,-0.3512,-0.3513,-0.3514,-0.3515,0,-0.3525,-0.3552,-0.3485,-0.3496,-0.3497,-0.3446,-0.3455,-0.3419,-0.3435,-0.3386,-0.3377,-0.3402,-0.3366,-0.3394,-0.3358,-0.3374,-0.329,-0.331,-0.3292,-0.3297,-0.3231,-0.3237,-0.3012,-0.2984,-0.3195,-0.3193,-0.3192,0,-0.3423,-0.3377,-0.3383,-0.3361,-0.3359,-0.3324,-0.3306,-0.3344,-0.3323,-0.3314,-0.3278,-0.3247,-0.3224,-0.3163,-0.3178,-0.3151,-0.3171,-0.3093,-0.3167,-0.3157,-0.317,-0.3172,-0.3168,-0.3078,-0.3076,-0.3074,-0.3072,0,-0.3239,-0.3254,-0.3227,-0.3204,-0.3182,-0.3166,-0.3153,-0.3133,-0.3171,-0.3145,-0.311,-0.3092,-0.3056,-0.3024,-0.3003,-0.3003,-0.3043,-0.3049,-0.3033,-0.3021,-0.3012,-0.3016,-0.3252,-0.3054,-0.3056,-0.3057,-0.3058,-0.3059,-0.3102,-0.3063,-0.3061,-0.303,-0.3024,-0.3012,-0.2978,-0.299,-0.2961,-0.2935,-0.2959,-0.2916,-0.2912,-0.2887,-0.2882,-0.2849,-0.2881,-0.2857,-0.2851,-0.2845,-0.2835,-0.3018,-0.2845,-0.2846,-0.2846,-0.2847,-0.2847,0,-0.2921,-0.2922,-0.2893,-0.2874,-0.2849,-0.289,-0.2878,-0.2854,-0.2816,-0.2809,-0.2785,-0.2744,-0.2713,-0.2726,-0.2699,-0.267,-0.2688,-0.2661,-0.2664,-0.2664,-0.2808,-0.2825,-0.2647,-0.2647,-0.2648,-0.2648,-0.2648,-0.2648,-0.2823,-0.2761,-0.2776,-0.2711,-0.2714,-0.2672,-0.2662,-0.265,-0.2645,-0.2597,-0.2572,-0.2581,-0.2581,-0.2555,-0.2529,-0.2533,-0.2521,-0.2488,-0.2499,-0.2634,-0.2653,-0.2672,-0.2688,-0.2485,-0.2484,-0.2357,-0.2356,-0.2355]},{"header":{"parameterUnit":"m.s-1","parameterCategory":1,"la1":30.2991,"la2":30.254,"lo1":-89.0895,"lo2":-89.0444,"dy":0.0017,"dx":0.0017,"nx":28,"ny":28,"refTime":"2023-05-26T21:00:00:Z","depth":0,"parameterNumber":3,"parameterNumberName":"V-component_of_WINDS"},"data":[0,0,0,0,0,0,0,0,0,0,0,0,0,0,0,0,0,0,0,0,0,0,0,0,0,0,0,0,0,0,0,0,0,0,0,0,0,0,0,0,0,0,0,0,0,0,0,0,0,0,0,0,0,0,0,0,0,0,-0.6699,-0.67,0,-0.6756,-0.6757,-0.6757,-0.6848,-0.685,-0.6852,-0.6853,-0.6912,-0.6912,-0.6912,0,0,0,0,0,0,0,0,0,0,0,0,0,-0.667,-0.667,-0.6699,-0.67,-0.67,-0.6756,-0.6757,-0.6758,-0.6848,-0.685,-0.6852,-0.6854,-0.6912,-0.6912,-0.6912,0,0,0,0,0,0,0,0,0,0,0,0,0,-0.67,-0.667,-0.6699,-0.6752,-0.6758,-0.6756,-0.6757,-0.6758,-0.6848,-0.685,-0.6853,-0.6855,-0.6912,-0.6912,-0.6912,-0.6863,0,0,-0.6912,-0.6912,0,0,0,0,0,0,0,0,-0.6699,-0.6701,-0.6744,-0.6749,-0.6755,-0.6798,-0.6768,-0.6793,-0.6847,-0.6813,-0.6853,-0.6856,-0.6872,-0.6875,-0.6881,-0.6865,-0.6868,-0.6912,-0.6912,-0.6912,-0.6912,0,0,0,0,0,0,0,-0.6696,-0.6699,-0.6722,-0.6744,-0.6751,-0.6774,-0.6781,-0.6773,-0.6828,-0.6817,-0.6823,-0.6829,-0.6875,-0.688,-0.6883,-0.6869,-0.6912,-0.6912,-0.6912,-0.6912,-0.6819,-0.6817,0,0,0,0,0,0,-0.6686,-0.6697,-0.672,-0.6723,-0.6732,-0.6772,-0.678,-0.6781,-0.6828,-0.6838,-0.6827,-0.6833,-0.6879,-0.6883,-0.6885,-0.6833,-0.6912,-0.6912,-0.6912,-0.6822,-0.6819,-0.6816,0,0,0,0,0,0,-0.6685,-0.6687,-0.6718,-0.6712,-0.6718,-0.677,-0.6771,-0.6781,-0.6786,-0.6836,-0.6846,-0.6822,-0.6881,-0.6885,-0.6868,-0.6836,-0.6912,-0.6912,-0.6825,-0.6821,-0.6817,-0.6726,0,0,0,0,0,0,-0.6684,-0.6687,-0.6668,-0.6711,-0.6718,-0.6699,-0.6769,-0.678,-0.6786,-0.6795,-0.6834,-0.6843,-0.6883,-0.6868,-0.6868,-0.6837,-0.6912,-0.6828,-0.6823,-0.6819,-0.6732,-0.6719,-0.6708,0,0,0,0,0,-0.6683,-0.6639,-0.6666,-0.6669,-0.6695,-0.6697,-0.67,-0.6748,-0.6783,-0.6765,-0.6798,-0.6842,-0.6839,-0.6865,-0.6867,-0.6835,-0.683,-0.6824,-0.6819,-0.6737,-0.6722,-0.6709,0,0,0,0,0,0,-0.659,-0.6646,-0.6676,-0.6645,-0.6666,-0.6712,-0.6691,-0.673,-0.674,-0.6748,-0.6807,-0.6815,-0.6791,-0.6811,-0.6839,-0.6792,-0.6842,-0.6836,-0.6779,-0.6765,-0.6753,-0.6749,-0.6912,0,0,0,0,0,-0.6566,-0.6562,-0.6611,-0.6579,-0.6588,-0.6637,-0.664,-0.6674,-0.6698,-0.6707,-0.6738,-0.6759,-0.6764,-0.6765,-0.6772,-0.6735,-0.6746,-0.6715,-0.6703,-0.6693,-0.6688,-0.6672,-0.666,-0.6798,-0.6798,-0.6798,0,0,-0.6517,-0.6547,-0.654,-0.6561,-0.6581,-0.6577,-0.6644,-0.6636,-0.6633,-0.6706,-0.6692,-0.6716,-0.6744,-0.6717,-0.6707,-0.6734,-0.6652,-0.6686,-0.6678,-0.6678,-0.6665,-0.6652,-0.6641,-0.6794,-0.6795,-0.6795,0,0,-0.6424,-0.6446,-0.6423,-0.6441,-0.6471,-0.6504,-0.6498,-0.6539,-0.6558,-0.6545,-0.66,-0.6599,-0.6604,-0.6623,-0.6633,-0.6549,-0.6591,-0.655,-0.6489,-0.6473,-0.6463,-0.6453,-0.6425,-0.6414,-0.6544,-0.6544,-0.6544,0,-0.6359,-0.6354,-0.6406,-0.6395,-0.6403,-0.6469,-0.6447,-0.6462,-0.6492,-0.6497,-0.6526,-0.6536,-0.6559,-0.6539,-0.6519,-0.6525,-0.6521,-0.6546,-0.646,-0.6451,-0.6443,-0.6417,-0.6406,-0.6539,-0.6539,-0.654,-0.654,0,-0.6273,-0.6269,-0.6247,-0.6275,-0.6281,-0.6264,-0.6314,-0.6314,-0.6348,-0.6379,-0.6367,-0.6397,-0.6412,-0.641,-0.6443,-0.6395,-0.6411,-0.6449,-0.6501,-0.6424,-0.6401,-0.6391,-0.6532,-0.6533,-0.6535,-0.6536,0,0,-0.6124,-0.6182,-0.6173,-0.6187,-0.6225,-0.6223,-0.621,-0.6225,-0.6225,-0.6243,-0.6235,-0.624,-0.6276,-0.6287,-0.6323,-0.6309,-0.6244,-0.635,-0.6351,-0.633,-0.6196,-0.6168,-0.6155,-0.6272,-0.627,-0.6269,-0.6194,0,-0.6041,-0.6021,-0.6068,-0.6038,-0.6036,-0.6099,-0.6088,-0.6111,-0.6139,-0.6142,-0.6175,-0.6177,-0.6224,-0.6232,-0.622,-0.6254,-0.6218,-0.626,-0.6267,-0.6266,-0.6258,-0.6143,-0.6113,-0.6041,-0.6185,-0.6184,-0.6183,0,-0.594,-0.5955,-0.5924,-0.5966,-0.5967,-0.5956,-0.5974,-0.5976,-0.6004,-0.6026,-0.6039,-0.6082,-0.6074,-0.6123,-0.6114,-0.6142,-0.6148,-0.6165,-0.6163,-0.6166,-0.622,-0.6144,-0.6019,-0.6008,-0.6168,-0.617,-0.6171,0,-0.5836,-0.5848,-0.5832,-0.5842,-0.5889,-0.5881,-0.59,-0.5931,-0.5937,-0.5954,-0.5959,-0.5974,-0.5983,-0.5994,-0.6041,-0.6072,-0.6027,-0.6079,-0.6046,-0.6045,-0.6035,-0.6035,-0.5909,-0.6036,-0.6036,-0.6036,-0.6036,0,-0.5739,-0.5718,-0.5786,-0.5776,-0.5755,-0.581,-0.5788,-0.5814,-0.5841,-0.5838,-0.5894,-0.589,-0.5951,-0.5955,-0.5992,-0.598,-0.5983,-0.6002,-0.6012,-0.5997,-0.5995,-0.6002,-0.6009,-0.6033,-0.6034,-0.6034,-0.6035,0,-0.5619,-0.5664,-0.5651,-0.5697,-0.5709,-0.5691,-0.5732,-0.5726,-0.5758,-0.5754,-0.5757,-0.5808,-0.5816,-0.5864,-0.5882,-0.5907,-0.5882,-0.5902,-0.5873,-0.5879,-0.5845,-0.5848,-0.572,-0.5707,-0.584,-0.5839,-0.5838,0,-0.5555,-0.554,-0.5586,-0.5588,-0.5605,-0.5607,-0.5615,-0.5668,-0.5674,-0.5706,-0.5696,-0.5708,-0.5721,-0.573,-0.577,-0.5785,-0.5807,-0.5761,-0.5809,-0.5796,-0.5808,-0.5809,-0.5809,-0.5751,-0.5749,-0.5747,-0.5746,0,-0.5436,-0.5459,-0.5467,-0.5483,-0.5491,-0.5506,-0.5525,-0.5524,-0.5583,-0.5587,-0.5596,-0.5605,-0.5625,-0.5637,-0.5659,-0.5681,-0.5724,-0.5731,-0.5724,-0.571,-0.5695,-0.5704,-0.5846,-0.5734,-0.5735,-0.5736,-0.5737,-0.5737,-0.5343,-0.5334,-0.5365,-0.5373,-0.5393,-0.541,-0.5407,-0.544,-0.5447,-0.5467,-0.5499,-0.5503,-0.5534,-0.5568,-0.5587,-0.5592,-0.5617,-0.5607,-0.5605,-0.5602,-0.5595,-0.5693,-0.5596,-0.5597,-0.5597,-0.5598,-0.5598,0,-0.5229,-0.5252,-0.5259,-0.5284,-0.5291,-0.533,-0.5354,-0.5357,-0.536,-0.5385,-0.5396,-0.5407,-0.542,-0.5461,-0.5479,-0.5475,-0.5496,-0.5478,-0.548,-0.5484,-0.5571,-0.5576,-0.5462,-0.5462,-0.5462,-0.5462,-0.5462,-0.5462,-0.517,-0.5158,-0.5185,-0.5183,-0.5207,-0.5212,-0.5222,-0.5239,-0.5259,-0.5269,-0.5279,-0.5306,-0.5338,-0.5359,-0.5373,-0.5385,-0.539,-0.5366,-0.5384,-0.5465,-0.5478,-0.549,-0.5495,-0.5366,-0.5366,-0.5298,-0.5297,-0.5297]}]]